INMARSAT 3-F3

Last updated on Thu Nov 21 2024 00:02:40 GMT+0000 (Coordinated Universal Time)

1 24674U 96070A 24325.27577382 -.00000100 00000+0 00000+0 0 9992 2 24674 9.0672 54.8909 0008583 185.4667 180.8211 0.99983186102170
UTC large
Height (km)
Speed (km/s)
/
Latitude / Longitude
Inclination (degrees)
Orbital Period (minutes)
Azimuth
Elevation
Range (km)
Doppler Factor

Next 0 passes for location: London (51.5072 / 0.1276)

Sorry there are no passes over London.